Weather History for KGHW - April, 2014

Change the Weather History Date:

Sunday, April 20, 2014

  Actual Average Record
Temperature  
Mean Temperature 54 °F -  
Max Temperature 73 °F 61 °F 86 °F (1980)
Min Temperature 35 °F 37 °F 18 °F (1966)
Degree Days  
Heating Degree Days 11    
Growing Degree Days 4 (Base 50)    
Moisture  
Dew Point 36 °F    
Average Humidity 53    
Maximum Humidity 93    
Minimum Humidity 20    
Precipitation  
Precipitation 0.00 in - - ()
Sea Level Pressure  
Sea Level Pressure 30.00 in    
Wind  
Wind Speed 6 mph (East)    
Max Wind Speed 10 mph    
Max Gust Speed 9 mph    
Visibility 10 miles    
Events      
Averages and records for this station are not official NWS values.
T = Trace of Precipitation, MM = Missing Value Source: NWS Daily Summary

Daily Weather History Graph

Daily Weather History Graph

Search for Another Location

Airport or City:

Trip Planner

Search our weather history database for the weather conditions in past years. The results will help you decide how hot, cold, wet, or windy it might be!

Date:

Astronomy

Apr. 20, 2014 Rise Set
Actual Time 6:26 AM CDT 8:14 PM CDT
Civil Twilight 5:55 AM CDT 8:45 PM CDT
Nautical Twilight 5:16 AM CDT 9:24 PM CDT
Astronomical Twilight 4:34 AM CDT 10:06 PM CDT
Moon 1:01 AM CDT (4/20) 10:42 AM CDT (4/20)
Length of Visible Light 14h 50m
Length of Day
13h 47m
Waning Gibbous, 68% of the Moon is Illuminated
Apr 20
Waning Gibbous
Apr 22
Last Quarter
Apr 29
New
May 6
First Quarter
May 14
Full

Hourly Weather History & Observations

Time (CDT) Temp. Windchill Dew Point Humidity Pressure Visibility Wind Dir Wind Speed Gust Speed Precip Events Conditions
12:13 AM 48.2 °F - 37.4 °F 66% 30.01 in 10.0 mi SSW 3.5 mph - N/A   Clear
12:33 AM 46.4 °F 45.2 °F 37.4 °F 71% 30.01 in 10.0 mi South 3.5 mph - N/A   Clear
12:54 AM 46.4 °F 44.3 °F 37.4 °F 71% 30.00 in 10.0 mi SSW 4.6 mph - N/A   Clear
1:13 AM 46.4 °F 42.9 °F 37.4 °F 71% 30.01 in 10.0 mi South 6.9 mph - N/A   Clear
1:33 AM 44.6 °F 43.1 °F 37.4 °F 76% 30.01 in 10.0 mi SSW 3.5 mph - N/A   Clear
1:53 AM 46.4 °F 45.2 °F 35.6 °F 66% 30.01 in 10.0 mi WSW 3.5 mph - N/A   Clear
2:13 AM 46.4 °F 43.5 °F 37.4 °F 71% 30.01 in 10.0 mi SSW 5.8 mph - N/A   Clear
2:33 AM 44.6 °F 42.2 °F 37.4 °F 76% 30.01 in 10.0 mi SW 4.6 mph - N/A   Clear
2:53 AM 44.6 °F 40.2 °F 35.6 °F 71% 30.02 in 10.0 mi North 8.1 mph - N/A   Clear
3:13 AM 44.6 °F - 35.6 °F 71% 30.02 in 10.0 mi Calm Calm - N/A   Clear
3:33 AM 44.6 °F 40.7 °F 35.6 °F 71% 30.03 in 10.0 mi North 6.9 mph - N/A   Clear
3:53 AM 42.8 °F 38.0 °F 33.8 °F 70% 30.03 in 10.0 mi NNE 8.1 mph - N/A   Clear
4:13 AM 41.0 °F 35.8 °F 33.8 °F 76% 30.04 in 10.0 mi NNE 8.1 mph - N/A   Clear
4:33 AM 37.4 °F 31.4 °F 33.8 °F 87% 30.04 in 10.0 mi ENE 8.1 mph - N/A   Clear
4:53 AM 37.4 °F 30.8 °F 33.8 °F 87% 30.05 in 10.0 mi NE 9.2 mph - N/A   Clear
5:13 AM 37.4 °F 30.8 °F 33.8 °F 87% 30.04 in 10.0 mi NE 9.2 mph - N/A   Clear
5:34 AM 37.4 °F 30.8 °F 33.8 °F 87% 30.04 in 10.0 mi NE 9.2 mph - N/A   Clear
5:53 AM 37.4 °F 31.4 °F 33.8 °F 87% 30.05 in 10.0 mi NE 8.1 mph - N/A   Clear
6:13 AM 35.6 °F 29.2 °F 33.8 °F 93% 30.05 in 10.0 mi ENE 8.1 mph - N/A   Clear
6:34 AM 35.6 °F 29.9 °F 33.8 °F 93% 30.05 in 10.0 mi NE 6.9 mph - N/A   Clear
6:53 AM 37.4 °F 31.4 °F 33.8 °F 87% 30.05 in 10.0 mi NE 8.1 mph - N/A   Clear
7:13 AM 37.4 °F 32.1 °F 33.8 °F 87% 30.05 in 10.0 mi NE 6.9 mph - N/A   Clear
7:34 AM 39.2 °F 34.2 °F 35.6 °F 87% 30.05 in 10.0 mi NE 6.9 mph - N/A   Clear
7:53 AM 42.8 °F 38.6 °F 35.6 °F 76% 30.05 in 10.0 mi ENE 6.9 mph - N/A   Clear
8:13 AM 44.6 °F 40.7 °F 37.4 °F 76% 30.05 in 10.0 mi ENE 6.9 mph - N/A   Clear
8:34 AM 48.2 °F - 37.4 °F 66% 30.04 in 10.0 mi ENE 6.9 mph - N/A   Clear
8:53 AM 50.0 °F - 37.4 °F 62% 30.04 in 10.0 mi ENE 9.2 mph - N/A   Clear
9:13 AM 53.6 °F - 39.2 °F 58% 30.04 in 10.0 mi East 10.4 mph - N/A   Clear
9:34 AM 55.4 °F - 39.2 °F 54% 30.03 in 10.0 mi ENE 9.2 mph - N/A   Clear
9:53 AM 57.2 °F - 39.2 °F 51% 30.03 in 10.0 mi East 8.1 mph - N/A   Clear
10:13 AM 59.0 °F - 39.2 °F 48% 30.04 in 10.0 mi East 8.1 mph - N/A   Clear
10:33 AM 60.8 °F - 39.2 °F 45% 30.03 in 10.0 mi East 9.2 mph - N/A   Clear
10:53 AM 62.6 °F - 39.2 °F 42% 30.04 in 10.0 mi East 8.1 mph - N/A   Clear
11:13 AM 64.4 °F - 39.2 °F 40% 30.04 in 10.0 mi East 8.1 mph - N/A   Clear
11:33 AM 64.4 °F - 37.4 °F 37% 30.04 in 10.0 mi East 8.1 mph - N/A   Clear
11:53 AM 66.2 °F - 39.2 °F 37% 30.03 in 10.0 mi East 8.1 mph - N/A   Clear
12:13 PM 66.2 °F - 37.4 °F 35% 30.03 in 10.0 mi SE 10.4 mph - N/A   Clear
12:33 PM 66.2 °F - 39.2 °F 37% 30.03 in 10.0 mi East 9.2 mph - N/A   Clear
1:14 PM 69.8 °F - 35.6 °F 28% 30.02 in 10.0 mi SE 3.5 mph - N/A   Clear
1:33 PM 69.8 °F - 35.6 °F 28% 30.01 in 10.0 mi SE 4.6 mph - N/A   Clear
1:53 PM 69.8 °F - 33.8 °F 27% 30.01 in 10.0 mi Calm Calm - N/A   Clear
2:14 PM 69.8 °F - 32.0 °F 25% 30.01 in 10.0 mi Calm Calm - N/A   Clear
2:33 PM 71.6 °F - 30.2 °F 22% 30.00 in 10.0 mi Calm Calm - N/A   Clear
2:53 PM 71.6 °F - 32.0 °F 23% 30.00 in 10.0 mi East 5.8 mph - N/A   Clear
3:14 PM 73.4 °F - 32.0 °F 22% 29.99 in 10.0 mi Calm Calm - N/A   Clear
3:33 PM 71.6 °F - 32.0 °F 23% 29.98 in 10.0 mi SSE 3.5 mph - N/A   Clear
3:53 PM 73.4 °F - 32.0 °F 22% 29.98 in 10.0 mi SSE 3.5 mph 9.2 mph N/A   Clear
4:13 PM 73.4 °F - 32.0 °F 22% 29.97 in 10.0 mi SSE 6.9 mph - N/A   Clear
4:33 PM 73.4 °F - 30.2 °F 20% 29.96 in 10.0 mi Calm Calm - N/A   Clear
4:53 PM 71.6 °F - 30.2 °F 22% 29.96 in 10.0 mi Calm Calm - N/A   Clear
5:13 PM 73.4 °F - 30.2 °F 20% 29.96 in 10.0 mi SSE 6.9 mph - N/A   Scattered Clouds
5:34 PM 73.4 °F - 32.0 °F 22% 29.96 in 10.0 mi ESE 3.5 mph - N/A   Clear
5:53 PM 73.4 °F - 30.2 °F 20% 29.96 in 10.0 mi South 4.6 mph - N/A   Scattered Clouds
6:13 PM 71.6 °F - 32.0 °F 23% 29.96 in 10.0 mi SSE 3.5 mph - N/A   Scattered Clouds
6:34 PM 71.6 °F - 32.0 °F 23% 29.96 in 10.0 mi Calm Calm - N/A   Scattered Clouds
6:53 PM 71.6 °F - 35.6 °F 27% 29.95 in 10.0 mi ESE 5.8 mph - N/A   Clear
7:13 PM 69.8 °F - 41.0 °F 35% 29.95 in 10.0 mi East 8.1 mph - N/A   Clear
7:33 PM 66.2 °F - 42.8 °F 43% 29.95 in 10.0 mi East 6.9 mph - N/A   Clear
7:53 PM 62.6 °F - 44.6 °F 52% 29.95 in 10.0 mi East 5.8 mph - N/A   Clear
8:14 PM 59.0 °F - 42.8 °F 55% 29.94 in 10.0 mi ESE 6.9 mph - N/A   Clear
8:33 PM 59.0 °F - 41.0 °F 51% 29.95 in 10.0 mi East 4.6 mph - N/A   Clear
8:53 PM 59.0 °F - 39.2 °F 48% 29.95 in 10.0 mi ESE 3.5 mph - N/A   Clear
9:13 PM 57.2 °F - 39.2 °F 51% 29.95 in 10.0 mi ESE 6.9 mph - N/A   Clear
9:33 PM 57.2 °F - 39.2 °F 51% 29.95 in 10.0 mi East 5.8 mph - N/A   Scattered Clouds
9:53 PM 57.2 °F - 39.2 °F 51% 29.95 in 10.0 mi East 4.6 mph - N/A   Scattered Clouds
10:13 PM 55.4 °F - 41.0 °F 58% 29.95 in 10.0 mi East 5.8 mph - N/A   Mostly Cloudy
10:33 PM 55.4 °F - 41.0 °F 58% 29.94 in 10.0 mi ESE 6.9 mph - N/A   Scattered Clouds
10:53 PM 55.4 °F - 39.2 °F 54% 29.94 in 10.0 mi ESE 5.8 mph - N/A   Scattered Clouds
11:13 PM 55.4 °F - 39.2 °F 54% 29.94 in 10.0 mi ESE 5.8 mph - N/A   Mostly Cloudy
11:33 PM 55.4 °F - 39.2 °F 54% 29.93 in 10.0 mi East 5.8 mph - N/A   Mostly Cloudy
11:54 PM 55.4 °F - 37.4 °F 51% 29.93 in 10.0 mi East 5.8 mph - N/A   Scattered Clouds